Location: Ostrava
(49.8330°N, 18.2830°E)
Time: 03:36:15
(UTC+02:00)

Daily predictions for brighter satellites

Satellite Brightness Start Highest point End
(mag) Time Altitude Azimuth Time Altitude Azimuth Time Altitude Azimuth
CENTAUR R/B 4.5 00:37:43 10° WNW 00:43:35 28° N 00:50:02 10° NE
CZ-4C R/B 4.4 01:05:55 10° NW 01:08:21 24° NNW 01:08:21 24° NNW
ATLAS 2AS CENTAUR R/B 3.9 01:44:54 42° ENE 01:44:54 42° ENE 01:50:16 10° NE
Cosmos 2333 Rocket 4.2 01:49:55 10° NNW 01:53:41 25° NNE 01:53:41 25° NNE
Cosmos 2237 Rocket 3.9 02:10:36 10° NNW 02:15:02 28° NE 02:15:02 28° NE
Cosmos 2082 Rocket 4.4 02:17:45 18° NNW 02:17:45 18° NNW 02:20:24 10° N
SL-16 R/B 4.4 02:31:38 10° NNW 02:36:04 23° NE 02:40:28 10° E
CENTAUR R/B 4.2 02:29:41 10° NW 02:36:24 37° NNE 02:43:44 10° E
SL-16 R/B 3.2 02:38:12 50° NE 02:38:12 50° NE 02:43:47 10° N
CZ-2D R/B 3.9 02:35:53 10° NE 02:39:36 24° E 02:39:36 24° E
Lacrosse 5 rocket 4.1 02:46:43 18° ENE 02:46:43 18° ENE 02:47:54 10° ENE
NOSS 3-2 (C) 4.1 02:37:41 10° NW 02:44:56 67° NE 02:52:51 10° SE
Cosmos 2219 Rocket 4.2 02:46:10 10° NNW 02:47:54 20° NNW 02:47:54 20° NNW
Cosmos 2227 Rocket 4.2 02:52:23 18° ESE 02:53:05 19° E 02:56:55 10° ENE
Lacrosse 5 4.2 02:59:10 16° ESE 02:59:10 16° ESE 03:01:10 10° E
Resurs 1-4 Rocket 3.4 02:55:29 10° NNE 02:59:55 36° E 02:59:55 36° E
Cosmos 2297 Rocket 4.4 03:00:30 14° ESE 03:02:15 16° E 03:05:34 10° ENE
Cosmos 1238 Rocket 4.4 03:15:26 56° NNW 03:15:26 56° NNW 03:21:01 10° N
GEOS 3 Rocket 4.3 03:13:00 10° NE 03:16:49 50° NNE 03:16:49 50° NNE
Cosmos 2344 3.9 03:17:22 51° SSE 03:18:52 58° ESE 03:27:35 10° NE
ATLAS 2AS CENTAUR R/B 3.3 03:32:20 49° WNW 03:33:38 54° NW 03:41:38 10° NE
Okean O Rocket 3.8 03:31:45 10° NE 03:35:11 22° E 03:36:49 18° ESE
ARIANE 5 R/B 2.8 03:33:54 10° NNE 03:38:11 63° NNE 03:38:11 63° NNE
Cosmos 2333 Rocket 4.0 03:33:52 10° NNW 03:35:34 20° NNW 03:35:34 20° NNW
Nadezhda 3 Rocket 4.2 03:41:52 57° NW 03:41:52 57° NW 03:47:25 10° N
RESURS DK-1 4.2 03:45:03 25° ESE 03:45:08 25° ESE 03:48:33 10° NE
ERS-2 4.1 03:42:49 10° NNE 03:44:35 26° NNE 03:44:35 26° NNE
ARGOS Delta rocket 4.0 03:43:28 10° NNE 03:48:11 75° ENE 03:48:11 75° ENE
Cosmos 2112 Rocket 4.0 03:44:57 10° NNW 03:50:19 80° ENE 03:51:07 64° SE
ADEOS 4.1 03:47:26 10° N 03:51:36 48° NNW 03:51:36 48° NNW
Cosmos 1680 Rocket 4.1 03:49:03 10° NNW 03:52:47 47° NNW 03:52:47 47° NNW
CZ-2D R/B 4.2 03:51:18 10° NNE 03:54:43 48° ENE 03:54:43 48° ENE
NOSS 3-2 (A) 4.1 03:49:38 10° NW 03:57:49 50° SSW 04:04:32 10° SSE
ATLAS 5 CENTAUR R/B 3.2 04:01:44 35° S 04:01:44 35° S 04:05:26 10° SSE
Cosmos 1727 Rocket 4.3 03:56:10 28° SSE 03:59:31 65° E 04:05:48 10° NNE
BREEZE-M DEB (TANK) 3.9 04:00:06 64° E 04:00:06 64° E 04:06:04 10° E
Cosmos 2237 Rocket 3.6 03:54:24 10° NNW 04:07:50 - SSE 03:56:41 25° NW
Okean 1-7 Rocket 3.7 04:03:34 73° ENE 04:03:34 73° ENE 04:07:46 10° NNE
IRAS Rocket 4.3 04:06:17 10° N 04:11:40 56° WNW 04:11:54 55° WNW
Cosmos 2084 3.7 04:17:30 53° N 04:17:30 53° N 04:20:38 10° NE
CZ-2C R/B 3.7 04:14:34 18° SSE 04:17:59 83° ENE 04:22:40 10° NNW
Cosmos 968 Rocket 4.0 04:18:33 42° NW 04:18:33 42° NW 04:23:16 10° NNE
Cosmos 1934 Rocket 4.3 04:13:28 10° NNW 04:19:05 43° W 04:19:05 43° W
CZ-2D R/B 2.2 04:15:28 10° N 04:20:35 55° WNW 04:20:55 54° W
SL-16 R/B 2.1 04:15:16 10° NNW 04:21:00 89° ENE 04:26:42 10° SSE
Cosmos 2219 3.8 04:20:55 38° WNW 04:21:22 38° NW 04:26:37 10° NNE
SL-16 R/B 3.5 04:23:19 29° WNW 04:23:19 29° WNW 04:27:14 10° NNW
USA 215 4.5 04:16:25 10° SSE 04:19:16 23° S 04:19:16 23° S
Lacrosse 5 rocket 2.1 04:22:27 44° NW 04:22:54 46° NNW 04:27:11 10° NE
Cosmos 1153 Rocket 4.4 04:17:50 10° NNW 04:24:11 77° W 04:30:33 10° S
Meteor 2-9 Rocket 4.4 04:18:37 10° N 04:24:16 74° ENE 04:30:02 10° SSE
ADEOS Rocket 4.1 04:18:35 10° NNE 04:25:36 49° E 04:31:54 10° S
Cosmos 1605 Rocket 4.0 04:19:53 10° NNW 04:25:51 54° W 04:27:42 40° SW
Cosmos 1666 2.8 04:23:04 10° N 04:26:58 73° E 04:28:44 30° SSE
Cosmos 292 Rocket 3.6 04:22:24 10° NNW 04:27:17 78° WSW 04:32:08 10° SSE
CENTAUR R/B 3.1 04:20:30 10° NW 04:28:10 82° NE 04:36:28 10° SE
CZ-4B R/B 3.7 04:26:36 10° NNE 04:30:56 56° E 04:34:18 17° S
Cosmos 1461 4.2 04:34:41 27° NW 04:34:52 27° NW 04:38:33 10° NNE
NOSS 3-2 (C) 4.3 04:28:54 10° NW 04:35:45 40° WSW 04:43:04 10° S
IRS-1D 4.2 04:31:35 10° N 04:36:26 36° WNW 04:36:51 36° WNW
Cosmos 2227 Rocket 2.1 04:34:14 39° SW 04:36:27 81° WNW 04:42:10 10° NNE
IRS-1C Rocket 4.1 04:31:22 10° NNE 04:36:41 81° ESE 04:40:28 20° SSW
Cosmos 1339 Rocket 4.5 04:32:11 20° SSW 04:36:50 83° W 04:43:19 10° N
Thor Agena Rocket 3.7 04:31:39 10° SSE 04:36:56 77° ENE 04:42:14 10° NNW
Cosmos 2058 Rocket 3.1 04:32:42 10° N 04:37:05 75° ENE 04:41:27 10° SSE
MOZ.5/SAFIR/RUBIN 5/SL-8 3.9 04:39:09 47° SW 04:39:50 51° W 04:44:30 10° NNW
Lacrosse 5 1.9 04:38:23 43° SW 04:40:01 77° SE 04:45:06 10° ENE
Resurs 1-4 Rocket 2.6 04:35:22 10° N 04:40:16 38° WNW 04:41:00 37° W
Meteor 1-13 Rocket 4.2 04:38:06 33° SSW 04:40:40 66° WNW 04:46:22 10° N
Okean-O 4.3 04:37:47 10° NNE 04:41:50 33° E 04:45:51 10° SSE
Tiangong 1 3.1 04:44:44 19° SSE 04:44:44 19° SSE 04:46:19 10° SE
Cosmos 1174 3.9 04:43:30 30° NNW 04:44:40 51° NE 04:47:44 10° SE
COS B Rocket 3.3 04:45:27 43° NE 04:45:27 43° NE 04:47:31 10° N
Cosmos 2297 Rocket 2.1 04:42:20 28° SSW 04:45:28 89° ESE 04:51:11 10° NNE
BREEZE-M DEB (TANK) 4.0 04:46:49 26° SSW 04:47:54 30° SSE 04:50:17 10° E
Okean 2 3.6 04:45:05 17° S 04:48:14 73° E 04:52:22 10° NNE
Cosmos 1025 Rocket 3.0 04:51:36 37° SW 04:53:05 60° WNW 04:57:23 10° N
USA 116 4.4 04:48:53 10° SSE 04:53:48 69° ENE 04:58:11 10° N
Cosmos 2098 Rocket 3.3 04:51:39 10° N 04:55:24 68° E 05:00:08 10° SSE
BREEZE-M DEB (TANK) 4.4 04:54:35 28° WSW 04:57:13 41° SSW 05:11:37 10° SE
Aureole 2 Rocket 2.3 04:56:23 10° NNW 04:59:56 60° WSW 05:03:05 10° S
UNKNOWN OBJECT B 4.1 04:58:56 10° N 05:02:03 25° WNW 05:02:03 25° WNW
CZ-4B DEB 4.1 04:57:20 10° NNE 05:02:51 85° WNW 05:08:21 10° SSW
NOSS 3-4 (A) 3.6 05:00:04 26° WSW 05:03:46 67° NW 05:10:26 10° NE
NOSS 3-4 (C) 3.6 05:00:08 26° WSW 05:03:53 67° NW 05:10:33 10° NE
Cosmos 1898 Rocket 3.7 04:58:46 10° SSW 05:04:04 73° ESE 05:09:22 10° NNE
Cosmos 2100 Rocket 4.0 04:59:25 10° NNW 05:05:33 61° W 05:11:42 10° S
Cosmos 2061 Rocket 4.0 05:01:19 10° NNW 05:07:34 65° W 05:13:50 10° S
Cosmos 1802 Rocket 3.9 05:01:47 10° NNW 05:07:56 71° W 05:14:02 10° S
Cosmos 1603 3.8 05:02:46 10° NNW 05:08:34 84° ENE 05:14:16 10° SSE
Cosmos 1606 Rocket 4.1 05:05:00 10° NNW 05:08:59 35° W 05:11:02 22° SW
Okean O Rocket 1.9 05:07:35 10° N 05:11:49 46° WNW 05:14:17 22° SW
Cosmos 1937 Rocket 3.9 05:10:08 10° S 05:15:20 67° ESE 05:20:36 10° NNE
Cosmos 1725 Rocket 4.1 05:10:46 10° N 05:17:08 82° E 05:23:24 10° S
ARIANE 5 R/B 4.1 05:14:15 10° NNW 05:17:30 17° NW 05:18:31 16° WNW
Cosmos 2082 4.0 05:14:48 22° WSW 05:18:08 47° NW 05:23:34 10° NNE
PAYLOAD B 4.3 05:13:04 10° N 05:18:29 59° WNW 05:23:53 10° SSW
Cosmos 1726 Rocket 4.2 05:15:22 10° NNW 05:19:18 32° W 05:23:11 10° SSW
Cosmos 1346 Rocket 3.1 05:17:11 21° SW 05:19:32 46° WNW 05:23:26 10° N
ERS-2 4.3 05:18:08 10° NNW 05:19:24 13° NW 05:19:24 13° NW
RESURS DK-1 2.9 05:21:00 24° WSW 05:23:01 41° NW 05:26:59 10° NNE
AVUM R/B 4.3 05:22:32 10° NNW 05:24:53 33° NE 05:27:05 10° ESE
Meteor 1-15 Rocket 4.5 05:20:51 10° NNW 05:26:06 44° W 05:31:23 10° SSW
ATLAS 2AS CENTAUR R/B 4.3 05:19:47 11° WNW 05:26:30 31° N 05:33:36 10° NE
Cosmos 2344 4.3 05:27:22 17° W 05:33:40 51° NNW 05:43:19 10° NE
Cosmos 1602 Rocket 3.6 05:29:41 10° S 05:34:07 84° E 05:38:33 10° N
ADEOS II 2.0 05:29:18 10° NNE 05:34:35 79° WNW 05:39:50 10° SSW
PSLV R/B 3.6 05:31:27 10° N 05:35:45 61° WNW 05:39:58 10° SSW
Cosmos 1892 Rocket 4.2 05:33:10 10° SW 05:37:15 37° WNW 05:41:26 10° N
Cosmos 2016 Rocket 4.2 05:32:31 10° NNW 05:38:38 52° W 05:44:40 10° SSW
CZ-4B R/B 3.6 05:36:24 10° N 05:41:27 42° WNW 05:46:33 10° SW
SKYMED 2 4.0 05:37:57 10° SSE 05:42:15 68° ENE 05:46:36 10° N
ATLAS 5 CENTAUR R/B 4.0 05:43:30 12° WSW 05:43:30 12° WSW 05:45:26 10° SW
Cosmos 2173 Rocket 4.5 05:38:24 10° NNW 05:43:50 35° W 05:49:16 10° SSW
Feng Yun 1-1 Rocket 4.3 05:38:51 10° NNE 05:44:30 80° WNW 05:50:16 10° SSW
Cosmos 2228 3.7 05:41:07 10° NNW 05:45:02 32° W 05:48:55 10° SSW
Meteor 2-17 Rocket 4.4 05:41:06 10° NNW 05:47:16 79° W 05:53:24 10° S
Meteor 1-31 Rocket 2.7 05:47:46 10° NNE 05:51:43 84° W 05:55:38 10° SSW
Cosmos 468 4.5 05:47:30 10° NNW 05:52:44 73° WSW 05:57:56 10° SSE
CZ-4B R/B 3.7 05:50:16 10° NNE 05:54:16 84° WNW 05:58:03 10° SSW
USA 129 2.5 05:52:50 10° SSW 05:54:17 21° W 05:55:37 10° NW
Genesis I 4.1 05:50:33 10° SSW 05:54:26 53° SE 05:58:20 10° NE
Cosmos 1812 Rocket 3.6 05:50:19 10° NNW 05:54:41 57° W 05:59:03 10° S
BREEZE-M DEB (TANK) 4.3 05:42:22 10° WNW 05:55:35 41° SW 05:59:39 10° SSE
Cosmos 2084 Rocket 3.2 05:52:01 10° NW 05:55:50 65° SW 05:59:48 10° SSE
Cosmos 2227 4.3 05:50:16 10° SSW 05:56:02 85° ESE 06:01:50 10° NNE
CZ-2D R/B 4.0 05:58:13 10° NNW 05:59:35 11° NW 06:00:57 10° WNW
Cosmos 2123 Rocket 4.0 05:56:24 10° SSW 06:02:30 64° WNW 06:08:40 10° N
Lacrosse 5 rocket 2.8 05:58:52 10° WNW 06:02:58 32° N 06:06:52 10° ENE
SL-16 R/B 3.5 06:00:50 10° WNW 06:04:20 17° W 06:07:49 10° SW
CZ-4B R/B 4.5 06:02:31 10° NNW 06:05:47 21° WNW 06:09:06 10° WSW
MOS 1 Rocket 3.4 06:01:39 10° N 06:06:20 62° WNW 06:11:19 10° SSW
Cosmos 1515 3.9 06:02:42 10° SSW 06:06:24 47° WNW 06:10:08 10° N
SeaSat 1 2.7 06:04:41 10° SE 06:09:37 77° ENE 06:14:34 10° NNW
ADEOS Rocket 3.8 06:04:14 10° N 06:10:58 41° WNW 06:17:06 10° SW
COBE Rocket 4.0 06:10:21 10° N 06:15:01 51° WNW 06:19:33 10° SW
BREEZE M DEB (TANK) 3.8 06:11:07 10° W 06:15:05 89° S 06:30:19 10° E
Cosmos 1048 Rocket 3.9 06:10:13 10° NNW 06:15:21 70° WSW 06:20:26 10° SSE
Cosmos 990 Rocket 4.2 06:10:53 10° SW 06:16:03 55° WNW 06:21:13 10° NNE
Cosmos 1269 Rocket 4.1 06:11:06 10° NNW 06:16:19 61° WSW 06:21:30 10° S
Ariane Rocket 3.3 06:11:21 10° NNE 06:16:29 77° ESE 06:21:35 10° S
CENTAUR R/B 3.8 06:11:45 10° NW 06:18:27 32° WSW 06:25:29 10° S
